Newark, NJ

7:24 PM EDT on September 21, 2017 (GMT -0400)
Newark International

Weather History for KEWR - September, 2014

Change the Weather History Date:

Thursday, September 11, 2014

  Actual Average Record
Temperature  
Mean Temperature 76 °F 70 °F  
Max Temperature 86 °F 79 °F 99 °F (1983)
Min Temperature 66 °F 62 °F 47 °F (1932)
Degree Days  
Heating Degree Days 0 1  
Month to date heating degree days 0 2  
Since 1 July heating degree days 0 3  
Cooling Degree Days 11 6  
Month to date cooling degree days 130 77  
Year to date cooling degree days 1115 1111  
Growing Degree Days 26 (Base 50)    
Moisture  
Dew Point 65 °F    
Average Humidity 76    
Maximum Humidity 93    
Minimum Humidity 58    
Precipitation  
Precipitation T in 0.12 in 3.64 in (1954)
Month to date precipitation 0.36 1.26  
Year to date precipitation 34.98 32.63  
Snow  
Snow 0.00 in 0.00 in 0.00 in (2002)
Month to date snowfall 0.0 0.0  
Since 1 July snowfall 0.0 0.0  
Snow Depth 0.00 in    
Sea Level Pressure  
Sea Level Pressure 29.91 in    
Wind  
Wind Speed 11 mph (SSW)    
Max Wind Speed 20 mph    
Max Gust Speed 25 mph    
Visibility 10 miles    
Events      
T = Trace of Precipitation, MM = Missing Value Source: NWS Daily Summary

Daily Weather History Graph

Daily Weather History Graph

Search for Another Location

Airport or City:

Trip Planner

Search our weather history database for the weather conditions in past years. The results will help you decide how hot, cold, wet, or windy it might be!

Date:

Astronomy

Sep. 11, 2014 Rise Set
Actual Time 6:33 AM EDT 7:12 PM EDT
Civil Twilight 6:05 AM EDT 7:39 PM EDT
Nautical Twilight 5:33 AM EDT 8:12 PM EDT
Astronomical Twilight 4:59 AM EDT 8:46 PM EDT
Moon 8:48 PM EDT (9/11) 9:28 AM EDT (9/11)
Length of Visible Light 13h 34m
Length of Day
12h 39m
Waning Gibbous, 91% of the Moon is Illuminated
Sep 11
Waning Gibbous
Sep 15
Last Quarter
Sep 24
New
Oct 1
First Quarter
Oct 8
Full

Hourly Weather History & Observations

Time (EDT) Temp. Heat Index Dew Point Humidity Pressure Visibility Wind Dir Wind Speed Gust Speed Precip Events Conditions
12:51 AM 68.0 °F - 63.0 °F 84% 30.02 in 10.0 mi South 5.8 mph - N/A   Mostly Cloudy
1:51 AM 66.9 °F - 63.0 °F 87% 30.01 in 10.0 mi South 4.6 mph - N/A   Mostly Cloudy
2:51 AM 66.9 °F - 64.0 °F 90% 30.00 in 10.0 mi SSW 5.8 mph - N/A   Overcast
3:46 AM 66.2 °F - 62.6 °F 88% 29.99 in 10.0 mi SSW 9.2 mph - N/A   Mostly Cloudy
3:51 AM 66.9 °F - 63.0 °F 87% 29.99 in 10.0 mi SSW 8.1 mph - N/A   Mostly Cloudy
4:05 AM 66.2 °F - 62.6 °F 88% 29.98 in 10.0 mi South 8.1 mph - N/A   Mostly Cloudy
4:51 AM 66.9 °F - 64.0 °F 90% 29.96 in 10.0 mi South 6.9 mph - N/A   Overcast
5:51 AM 68.0 °F - 64.9 °F 90% 29.95 in 10.0 mi South 4.6 mph - 0.00 in   Overcast
6:51 AM 69.8 °F - 64.4 °F 83% 29.95 in 10.0 mi South 9.2 mph - N/A   Overcast
7:51 AM 70.0 °F - 64.9 °F 84% 29.94 in 10.0 mi South 9.2 mph - N/A   Mostly Cloudy
8:02 AM 69.8 °F - 64.4 °F 83% 29.93 in 10.0 mi South 8.1 mph - N/A   Overcast
8:51 AM 72.0 °F - 64.0 °F 76% 29.91 in 10.0 mi South 10.4 mph - N/A   Overcast
9:03 AM 73.4 °F - 64.4 °F 73% 29.91 in 10.0 mi South 15.0 mph 21.9 mph N/A   Overcast
9:51 AM 73.0 °F - 64.9 °F 76% 29.91 in 10.0 mi South 11.5 mph - N/A   Overcast
9:58 AM 73.4 °F - 64.4 °F 73% 29.91 in 10.0 mi South 12.7 mph 18.4 mph N/A   Overcast
10:51 AM 75.9 °F - 66.9 °F 74% 29.88 in 10.0 mi South 8.1 mph - N/A   Overcast
11:51 AM 79.0 °F - 66.9 °F 66% 29.86 in 10.0 mi SSW 13.8 mph - N/A   Overcast
12:51 PM 80.1 °F 82.3 °F 66.9 °F 64% 29.86 in 10.0 mi SW 16.1 mph - N/A   Overcast
1:51 PM 81.0 °F 83.3 °F 66.9 °F 62% 29.85 in 10.0 mi WSW 16.1 mph - N/A   Overcast
2:51 PM 82.0 °F 84.5 °F 66.9 °F 60% 29.83 in 10.0 mi SW 16.1 mph 19.6 mph N/A   Mostly Cloudy
3:51 PM 84.0 °F 87.0 °F 68.0 °F 58% 29.82 in 10.0 mi WSW 12.7 mph 19.6 mph N/A   Mostly Cloudy
4:51 PM 84.0 °F 87.0 °F 68.0 °F 58% 29.82 in 10.0 mi WSW 12.7 mph - N/A   Mostly Cloudy
5:51 PM 84.9 °F 88.2 °F 68.0 °F 57% 29.83 in 10.0 mi West 12.7 mph - N/A   Mostly Cloudy
6:51 PM 82.9 °F 85.8 °F 68.0 °F 60% 29.84 in 10.0 mi West 11.5 mph - N/A   Mostly Cloudy
7:51 PM 81.0 °F 83.8 °F 68.0 °F 65% 29.85 in 10.0 mi WSW 8.1 mph - N/A   Scattered Clouds
8:51 PM 80.1 °F 82.7 °F 68.0 °F 67% 29.87 in 10.0 mi West 8.1 mph - N/A   Scattered Clouds
9:51 PM 79.0 °F - 68.0 °F 69% 29.89 in 10.0 mi WNW 11.5 mph - N/A   Scattered Clouds
10:51 PM 75.9 °F - 62.1 °F 62% 29.92 in 10.0 mi NNW 15.0 mph 21.9 mph N/A   Scattered Clouds
11:51 PM 72.0 °F - 57.0 °F 59% 29.95 in 10.0 mi North 16.1 mph 21.9 mph N/A   Scattered Clouds